[[{"header":{"parameterUnit":"m.s-1","parameterCategory":1,"la1":30.2992,"la2":30.254,"lo1":-89.0895,"lo2":-89.0443,"dy":0.0025,"dx":0.0025,"nx":19,"ny":19,"refTime":"2026-03-21T09:00:00:Z","depth":0,"parameterNumber":2,"parameterNumberName":"U-component_of_WINDS"},"data":[0,0,0,2.9365,2.9369,2.9561,2.9562,2.9808,2.981,0,0,0,0,0,0,0,0,0,0,0,2.931,2.9312,2.9365,2.937,2.9561,2.9562,2.9808,2.981,0,0,0,0,0,0,0,0,0,0,0,2.9309,2.9311,2.9313,2.9371,2.9561,2.9562,2.9807,2.9662,0,0,0,0,0,0,0,0,0,0,2.9476,2.9426,2.9311,2.9313,2.9372,2.9561,2.9562,2.9655,2.9671,2.9722,0,2.9768,0,2.9793,2.9827,2.9828,0,0,0,2.9369,2.9413,2.9463,2.9314,2.9373,2.9561,2.9475,2.9664,2.9682,2.9743,2.9771,2.978,2.9797,2.9828,2.983,3.0123,3.0124,0,0,2.9358,2.9345,2.9451,2.9475,2.9446,2.9469,2.9481,2.9675,2.9705,2.9772,2.9786,2.9801,2.983,2.9832,3.0122,3.0123,0,0,0,2.9329,2.9338,2.9383,2.9465,2.9499,2.9474,2.9488,2.9696,2.9712,2.9789,2.9804,2.9832,2.9835,3.012,3.0122,3.0177,0,0,0,2.9322,2.9321,2.9379,2.9373,2.9496,2.96,2.9505,2.9699,2.9721,2.9803,2.9832,2.9837,3.0119,3.0121,3.0172,3.0204,0,0,0,2.9297,2.9318,2.9346,2.9372,2.9454,2.9598,2.9625,2.9704,2.973,2.9828,2.9838,3.0118,3.0121,3.0168,3.0198,3.0275,0,0,0,2.9266,2.9394,2.9346,2.9495,2.9452,2.9631,2.9624,2.9758,2.9848,2.9833,3.0119,3.0122,3.0166,3.0193,3.027,3.0336,3.0363,0,0,2.942,2.9412,2.95,2.9463,2.9646,2.9602,2.9794,2.989,2.9912,3.0051,3.0059,3.0174,3.0197,3.0274,3.0522,3.0543,0,0,0,2.9544,2.9607,2.9658,2.9743,2.9819,2.9885,2.9953,2.9988,3.0106,2.9981,3.0225,3.0239,3.0284,3.0316,3.0334,3.0372,3.0137,3.0137,3.0136,2.9742,2.9761,2.9907,2.9949,3.0031,3.0098,3.0166,3.0224,3.0223,3.028,3.032,3.0468,3.0505,3.0519,3.0558,3.0359,3.0359,3.0359,3.0359,2.9966,3.0056,3.0048,3.0185,3.0205,3.0321,3.039,3.0384,3.0493,3.044,3.0481,3.0419,3.0541,3.0577,3.0364,3.0363,3.0363,3.0362,3.0362,3.0095,3.0141,3.0181,3.0303,3.0394,3.0433,3.0537,3.0553,3.0568,3.0609,3.0651,3.065,3.0648,3.0628,3.0629,3.0629,3.063,3.063,3.0631,3.0212,3.0255,3.0341,3.043,3.0484,3.0557,3.0624,3.0678,3.0742,3.0744,3.0745,3.0734,3.0551,3.0502,3.0639,3.0637,3.0636,3.0635,3.0635,3.0426,3.038,3.0513,3.0567,3.067,3.0758,3.0776,3.0883,3.093,3.098,3.0962,3.0825,3.0818,3.0804,3.0763,3.0959,3.0959,3.0959,3.0959,3.0533,3.0531,3.0668,3.0753,3.0838,3.0867,3.1013,3.1066,3.1113,3.1143,3.1117,3.1066,3.1051,3.1053,3.1033,3.0996,3.1246,3.1247,3.1247,3.0664,3.067,3.0793,3.0837,3.0919,3.0987,3.1125,3.1221,3.1266,3.1259,3.1165,3.1153,3.1071,3.1044,3.1033,3.1002,3.0934,0,0]},{"header":{"parameterUnit":"m.s-1","parameterCategory":1,"la1":30.2992,"la2":30.254,"lo1":-89.0895,"lo2":-89.0443,"dy":0.0025,"dx":0.0025,"nx":19,"ny":19,"refTime":"2026-03-21T09:00:00:Z","depth":0,"parameterNumber":3,"parameterNumberName":"V-component_of_WINDS"},"data":[0,0,0,2.8964,2.8967,2.9107,2.9107,2.9289,2.929,0,0,0,0,0,0,0,0,0,0,0,2.8926,2.8927,2.8964,2.8967,2.9107,2.9107,2.9288,2.929,0,0,0,0,0,0,0,0,0,0,0,2.8925,2.8927,2.8929,2.8968,2.9107,2.9107,2.9288,2.9181,0,0,0,0,0,0,0,0,0,0,2.9045,2.9014,2.8927,2.8929,2.8969,2.9107,2.9107,2.9176,2.9188,2.9227,0,2.9265,0,2.928,2.9303,2.9303,0,0,0,2.8964,2.9004,2.9039,2.8929,2.897,2.9106,2.9043,2.9182,2.9196,2.9243,2.9267,2.9274,2.9283,2.9304,2.9305,2.9543,2.9545,0,0,2.8956,2.8953,2.9029,2.9047,2.9028,2.9038,2.9047,2.9191,2.9216,2.9268,2.9278,2.9286,2.9305,2.9307,2.9542,2.9544,0,0,0,2.8936,2.8948,2.8978,2.904,2.9065,2.9043,2.9053,2.921,2.922,2.928,2.9288,2.9306,2.9309,2.9541,2.9543,2.9601,0,0,0,2.8931,2.8936,2.8975,2.8975,2.9063,2.914,2.9069,2.921,2.9227,2.9288,2.9306,2.931,2.954,2.9542,2.9597,2.963,0,0,0,2.8916,2.8934,2.8956,2.8974,2.9034,2.9138,2.9156,2.9214,2.9232,2.9304,2.9311,2.9539,2.9541,2.9593,2.9623,2.9691,0,0,0,2.8898,2.9006,2.8957,2.9081,2.9033,2.9173,2.9155,2.926,2.9328,2.9307,2.954,2.9543,2.9592,2.9619,2.9686,2.9747,2.9772,0,0,2.9033,2.9023,2.9096,2.9055,2.9204,2.9152,2.9308,2.9374,2.9383,2.9489,2.9495,2.9598,2.9623,2.969,2.9914,2.9934,0,0,0,2.9138,2.919,2.923,2.9295,2.9348,2.9395,2.9437,2.946,2.955,2.9438,2.9641,2.9656,2.9695,2.9724,2.9741,2.9775,2.9556,2.9556,2.9555,2.9325,2.9331,2.9452,2.9474,2.9537,2.9578,2.9628,2.9667,2.9655,2.9703,2.9735,2.987,2.9904,2.9917,2.9952,2.9767,2.9767,2.9768,2.9768,2.9523,2.9598,2.9578,2.9688,2.9693,2.9785,2.9827,2.9815,2.99,2.9847,2.9882,2.9824,2.9938,2.9969,2.9772,2.9771,2.9771,2.977,2.977,2.9646,2.9683,2.971,2.9803,2.9873,2.989,2.9973,2.9974,2.9975,3.001,3.0042,3.0041,3.004,3.0025,3.0026,3.0026,3.0027,3.0027,3.0027,2.9764,2.9792,2.9862,2.9925,2.9965,3.0018,3.0058,3.0098,3.0141,3.0135,3.0135,3.0117,2.9949,2.9906,3.0035,3.0033,3.0032,3.0032,3.0031,2.9963,2.9917,3.0025,3.0066,3.0138,3.0206,3.0206,3.0285,3.0318,3.0357,3.0331,3.0207,3.0196,3.0183,3.0147,3.0331,3.0331,3.0331,3.0331,3.0066,3.0061,3.017,3.0234,3.0297,3.0307,3.0426,3.0456,3.0481,3.0501,3.0474,3.0427,3.0413,3.0411,3.0392,3.0359,3.0593,3.0593,3.0593,3.0188,3.0188,3.0291,3.0315,3.0371,3.0418,3.0529,3.0602,3.062,3.0604,3.0516,3.0505,3.0429,3.0404,3.0387,3.0359,3.0298,0,0]}]]